{"data":{"norad_id":58678,"intl_designator":"2023-211M","name":"STARLINK-31125","alt_names":[],"object_type":"PAYLOAD","status":"ACTIVE","operator":null,"country":"US","launch_date":"2023-12-29","launch_site_code":"AFETR","launch_vehicle":null,"mission":null,"orbit_class":"UNKNOWN","rcs_meters":null,"size_class":null,"mass_kg":null,"dimensions":null,"purposes":["comms"],"wikipedia_slug":null,"has_3d_model":false,"image_url":null,"decayed_at":null,"tle_current":{"epoch":"2026-09-20T03:34:57.996768Z","epoch_age_seconds":180159,"freshness":"STALE","line1":"1 58678U 23211M   26263.14928237  .00000290  00000+0  20058-4 0  9997","line2":"2 58678  43.0022  67.1615 0001831 270.1346  89.9296 15.27579782153374","mean_motion":15.27579782,"eccentricity":0.0001831,"inclination_deg":43.0022,"raan_deg":67.1615,"arg_perigee_deg":270.1346,"mean_anomaly_deg":89.9296,"bstar":2.0058e-5,"rev_number":15337,"period_min":94.266762166403,"perigee_km":481.79346551645,"apogee_km":484.30603210386,"semimajor_km":6861.1867488102,"source":"CELESTRAK","updated_at":"2026-09-21T09:00:33.944162Z"}}}